Total_Precipitation_Accumulation
0.07 0.05 0.05 0.07 0.05 0.03 0.01 0.00 0.00 0.00 0.00 0.00 0.00 0.00 0.00 0.00 0.00 0.01 0.01 0.01 0.02 0.05 0.10 0.19 0.25 0.29 0.32 0.34 0.35 0.35 0.36 0.37 0.40 0.42 0.47 0.52 0.53 0.54 0.58 0.62 0.63 0.64 0.70 0.74 0.76 0.73 0.71 0.70 0.65
0.06 0.06 0.08 0.09 0.05 0.02 0.00 0.00 0.00 0.00 0.00 0.00 0.00 0.00 0.00 0.00 0.00 0.00 0.01 0.01 0.01 0.03 0.07 0.14 0.25 0.29 0.33 0.35 0.36 0.36 0.36 0.37 0.39 0.44 0.49 0.53 0.54 0.55 0.59 0.62 0.64 0.65 0.68 0.75 0.76 0.74 0.72 0.70 0.70
0.09 0.10 0.11 0.09 0.04 0.00 0.00 0.00 0.00 0.00 0.00 0.00 0.00 0.00 0.00 0.00 0.00 0.01 0.01 0.01 0.01 0.02 0.05 0.13 0.25 0.31 0.35 0.38 0.39 0.39 0.41 0.42 0.44 0.46 0.50 0.56 0.58 0.60 0.61 0.60 0.59 0.59 0.59 0.62 0.64 0.70 0.75 0.74 0.73
0.13 0.18 0.15 0.09 0.02 0.00 0.00 0.00 0.00 0.00 0.00 0.00 0.00 0.00 0.00 0.00 0.01 0.01 0.01 0.01 0.02 0.03 0.06 0.14 0.25 0.33 0.38 0.42 0.42 0.41 0.44 0.46 0.49 0.52 0.54 0.60 0.67 0.67 0.65 0.62 0.63 0.58 0.55 0.56 0.60 0.65 0.75 0.74 0.69
0.18 0.22 0.17 0.07 0.01 0.00 0.00 0.00 0.00 0.00 0.00 0.00 0.00 0.00 0.00 0.00 0.00 0.01 0.02 0.03 0.04 0.05 0.08 0.15 0.25 0.36 0.41 0.45 0.47 0.47 0.49 0.51 0.53 0.55 0.58 0.63 0.68 0.69 0.67 0.67 0.65 0.62 0.60 0.58 0.58 0.63 0.73 0.71 0.66
0.22 0.23 0.15 0.05 0.01 0.00 0.00 0.00 0.00 0.00 0.00 0.00 0.00 0.00 0.00 0.00 0.00 0.01 0.01 0.02 0.02 0.04 0.06 0.13 0.27 0.36 0.42 0.48 0.51 0.54 0.57 0.60 0.61 0.61 0.66 0.69 0.71 0.70 0.69 0.68 0.64 0.64 0.62 0.59 0.60 0.63 0.67 0.64 0.60
0.23 0.21 0.10 0.03 0.01 0.00 0.00 0.00 0.00 0.00 0.00 0.00 0.00 0.00 0.00 0.01 0.00 0.01 0.02 0.03 0.04 0.06 0.10 0.16 0.28 0.38 0.46 0.54 0.58 0.61 0.65 0.67 0.67 0.69 0.72 0.75 0.75 0.76 0.73 0.67 0.60 0.62 0.62 0.62 0.61 0.60 0.58 0.56 0.53
0.23 0.24 0.12 0.04 0.03 0.01 0.00 0.00 0.00 0.01 0.01 0.00 0.00 0.00 0.01 0.01 0.01 0.02 0.04 0.06 0.08 0.11 0.15 0.21 0.30 0.37 0.45 0.55 0.62 0.67 0.71 0.74 0.80 0.83 0.76 0.76 0.83 0.87 0.82 0.73 0.66 0.63 0.61 0.60 0.59 0.57 0.51 0.48 0.48
0.30 0.34 0.14 0.04 0.02 0.02 0.01 0.01 0.01 0.01 0.01 0.01 0.00 0.00 0.01 0.02 0.03 0.05 0.08 0.11 0.15 0.17 0.20 0.25 0.35 0.42 0.49 0.55 0.61 0.75 0.85 0.88 0.93 0.97 0.88 0.86 0.87 0.86 0.82 0.73 0.70 0.65 0.62 0.58 0.59 0.58 0.58 0.54 0.49
0.35 0.28 0.09 0.03 0.02 0.03 0.04 0.04 0.03 0.04 0.03 0.01 0.01 0.01 0.02 0.03 0.05 0.08 0.10 0.12 0.16 0.18 0.23 0.29 0.37 0.46 0.57 0.63 0.70 0.81 0.89 0.94 0.93 0.83 0.86 0.89 0.83 0.82 0.78 0.76 0.76 0.71 0.69 0.68 0.66 0.61 0.60 0.58 0.48
0.28 0.18 0.07 0.03 0.03 0.05 0.06 0.06 0.05 0.07 0.06 0.03 0.03 0.03 0.04 0.05 0.07 0.09 0.11 0.13 0.16 0.18 0.24 0.32 0.42 0.54 0.64 0.68 0.72 0.77 0.83 0.87 0.89 0.81 0.74 0.77 0.81 0.81 0.83 0.77 0.78 0.78 0.77 0.79 0.75 0.73 0.62 0.54 0.51
0.21 0.13 0.09 0.07 0.06 0.08 0.08 0.09 0.07 0.07 0.06 0.05 0.06 0.04 0.05 0.08 0.09 0.11 0.14 0.15 0.18 0.23 0.28 0.35 0.45 0.56 0.66 0.74 0.76 0.75 0.77 0.78 0.77 0.78 0.78 0.75 0.76 0.70 0.69 0.70 0.66 0.67 0.66 0.68 0.71 0.67 0.62 0.54 0.51
0.18 0.12 0.10 0.10 0.11 0.11 0.11 0.12 0.09 0.05 0.05 0.06 0.08 0.07 0.07 0.09 0.12 0.15 0.17 0.19 0.21 0.26 0.32 0.39 0.50 0.58 0.68 0.80 0.85 0.82 0.78 0.72 0.71 0.75 0.82 0.78 0.71 0.66 0.66 0.65 0.65 0.65 0.63 0.61 0.60 0.56 0.54 0.51 0.48
0.17 0.14 0.12 0.11 0.12 0.14 0.17 0.14 0.13 0.07 0.05 0.08 0.09 0.11 0.09 0.10 0.14 0.18 0.22 0.24 0.23 0.29 0.36 0.45 0.53 0.63 0.72 0.78 0.82 0.82 0.81 0.78 0.79 0.79 0.77 0.82 0.80 0.69 0.68 0.70 0.66 0.63 0.63 0.61 0.59 0.55 0.52 0.50 0.47
0.21 0.24 0.18 0.13 0.12 0.12 0.22 0.24 0.13 0.07 0.08 0.10 0.10 0.13 0.12 0.11 0.14 0.17 0.23 0.28 0.26 0.30 0.40 0.50 0.55 0.67 0.77 0.78 0.85 0.87 0.85 0.85 0.86 0.82 0.80 0.84 0.85 0.84 0.75 0.72 0.70 0.65 0.65 0.67 0.66 0.63 0.55 0.53 0.48
0.34 0.42 0.33 0.16 0.13 0.14 0.28 0.27 0.09 0.06 0.10 0.11 0.12 0.13 0.13 0.12 0.12 0.15 0.22 0.31 0.33 0.36 0.42 0.51 0.60 0.67 0.77 0.81 0.85 0.91 0.92 0.90 0.90 0.93 0.91 0.90 0.91 0.91 0.91 0.82 0.74 0.68 0.71 0.74 0.76 0.73 0.67 0.57 0.53
0.51 0.47 0.31 0.19 0.17 0.20 0.29 0.24 0.09 0.08 0.12 0.13 0.15 0.13 0.13 0.13 0.12 0.13 0.20 0.28 0.35 0.37 0.43 0.52 0.62 0.65 0.74 0.87 0.88 0.91 0.96 0.99 0.99 1.03 1.06 1.00 0.96 0.95 0.97 0.96 0.89 0.79 0.78 0.77 0.75 0.73 0.70 0.66 0.59
0.49 0.35 0.26 0.21 0.20 0.23 0.26 0.20 0.12 0.10 0.13 0.14 0.15 0.13 0.12 0.13 0.11 0.13 0.20 0.27 0.36 0.40 0.45 0.55 0.64 0.72 0.78 0.95 1.06 1.01 1.02 1.05 1.08 1.07 1.04 1.06 1.07 0.97 0.92 0.98 0.98 0.92 0.86 0.83 0.77 0.73 0.67 0.63 0.61
0.33 0.37 0.31 0.20 0.18 0.25 0.25 0.18 0.12 0.11 0.11 0.12 0.12 0.12 0.12 0.11 0.11 0.13 0.19 0.25 0.34 0.45 0.49 0.57 0.64 0.75 0.87 0.97 1.11 1.07 1.02 1.05 1.08 1.04 1.02 1.00 1.06 1.06 0.98 0.92 0.94 0.95 0.90 0.84 0.80 0.78 0.77 0.73 0.67
0.41 0.45 0.34 0.23 0.18 0.29 0.28 0.19 0.12 0.12 0.11 0.12 0.10 0.12 0.14 0.11 0.10 0.13 0.20 0.25 0.32 0.45 0.50 0.57 0.67 0.76 0.83 0.90 0.99 1.06 1.03 1.06 1.11 1.08 1.06 1.03 1.01 1.05 1.07 0.98 0.91 0.87 0.87 0.88 0.83 0.82 0.81 0.82 0.77
0.49 0.40 0.29 0.27 0.25 0.32 0.37 0.30 0.14 0.12 0.10 0.11 0.10 0.10 0.15 0.16 0.14 0.14 0.23 0.30 0.34 0.43 0.51 0.56 0.67 0.76 0.82 0.97 1.07 1.15 1.25 1.25 1.27 1.27 1.15 1.06 1.02 0.99 1.01 1.02 0.98 0.91 0.85 0.86 0.84 0.80 0.78 0.79 0.76
0.53 0.27 0.25 0.29 0.46 0.52 0.44 0.50 0.19 0.14 0.13 0.12 0.10 0.09 0.12 0.14 0.14 0.16 0.21 0.31 0.35 0.40 0.51 0.59 0.70 0.77 0.81 1.00 1.15 1.12 1.19 1.18 1.12 1.08 1.11 1.08 1.04 1.00 0.96 0.97 0.97 0.99 0.93 0.83 0.79 0.80 0.80 0.82 0.83
0.41 0.23 0.28 0.38 0.53 0.62 0.45 0.51 0.26 0.14 0.14 0.11 0.09 0.09 0.10 0.12 0.13 0.13 0.15 0.21 0.30 0.37 0.48 0.59 0.73 0.83 0.85 0.93 1.12 1.16 1.10 1.06 1.06 1.10 1.09 1.12 1.12 1.07 0.98 0.94 0.94 0.94 0.92 0.84 0.78 0.79 0.82 0.84 0.84
0.40 0.46 0.52 0.58 0.87 1.07 0.40 0.40 0.31 0.25 0.25 0.16 0.09 0.08 0.10 0.10 0.12 0.12 0.11 0.13 0.26 0.37 0.47 0.56 0.68 0.82 0.88 0.88 1.00 1.16 1.11 1.06 1.05 1.09 1.13 1.13 1.16 1.13 1.03 0.93 0.89 0.85 0.82 0.81 0.76 0.71 0.72 0.76 0.76
0.68 1.02 1.43 1.45 1.45 0.87 0.18 0.27 0.33 0.25 0.21 0.20 0.15 0.11 0.11 0.11 0.14 0.14 0.12 0.13 0.21 0.32 0.43 0.53 0.63 0.72 0.80 0.83 0.88 0.98 1.10 1.07 0.99 0.95 1.00 1.08 1.15 1.11 1.03 0.97 0.88 0.82 0.78 0.78 0.77 0.73 0.67 0.68 0.72
0.72 0.92 1.17 1.07 0.69 0.26 0.12 0.24 0.26 0.17 0.13 0.13 0.11 0.10 0.10 0.09 0.10 0.11 0.13 0.15 0.19 0.23 0.30 0.44 0.54 0.67 0.80 0.84 0.84 0.89 0.99 1.10 1.02 0.94 0.92 0.97 1.02 0.99 0.91 0.92 0.89 0.81 0.76 0.78 0.80 0.80 0.73 0.69 0.70
0.67 0.72 0.60 0.76 0.54 0.33 0.22 0.20 0.16 0.07 0.07 0.08 0.09 0.08 0.10 0.09 0.09 0.10 0.12 0.15 0.17 0.22 0.25 0.36 0.45 0.60 0.78 0.89 0.88 0.88 0.93 1.02 1.04 0.95 0.91 0.93 0.93 0.93 0.92 0.91 0.91 0.86 0.85 0.85 0.85 0.85 0.80 0.75 0.73
0.55 0.65 0.80 1.13 0.92 0.47 0.24 0.23 0.24 0.14 0.12 0.10 0.10 0.10 0.10 0.11 0.11 0.11 0.12 0.15 0.17 0.20 0.23 0.31 0.40 0.48 0.60 0.79 0.93 0.93 0.90 0.91 0.99 1.01 0.97 0.92 0.92 0.92 0.92 0.97 0.98 0.93 0.89 0.92 0.95 0.90 0.84 0.84 0.80
0.64 0.86 1.07 1.10 0.79 0.56 0.35 0.31 0.30 0.23 0.18 0.15 0.12 0.12 0.12 0.11 0.11 0.11 0.13 0.16 0.18 0.21 0.26 0.32 0.39 0.45 0.51 0.62 0.78 0.90 0.91 0.95 1.00 1.04 0.99 0.98 0.95 0.94 0.90 0.90 0.98 1.01 0.94 0.88 0.95 0.97 0.94 0.92 0.86
0.56 0.75 0.95 1.14 0.80 0.43 0.38 0.33 0.24 0.19 0.17 0.16 0.14 0.11 0.10 0.09 0.10 0.10 0.11 0.16 0.20 0.24 0.29 0.35 0.43 0.45 0.47 0.55 0.66 0.78 0.89 0.94 1.00 0.99 1.01 1.06 1.05 0.97 0.89 0.86 0.93 1.00 0.99 0.91 0.90 0.93 0.93 0.95 0.92